Home > Weather > Wardha > Past weeks

Flag for India Weather for the Past 2 Weeks in Wardha, Maharashtra, India

Now
88 °F

Scattered clouds.


Feels Like: 86 °F
Forecast: 76 / 90 °F
Wind: 5 mph from East

Location: Nagpur Sonegaon

Current Time: Feb 14, 2016 at 6:37:10 PM

Latest Report: Feb 14, 2016 at 5:30 PM


Visibility: 2 mi

Pressure: 29.92 "Hg

Humidity: 33%

Dew point: 55 °F

Location of WardhaLocation

Historic Weather in Wardha — Graph

°F

Wardha Temperature Yesterday

Maximum temperature yesterday: 93 °F (at 3:00 PM)
Minimum temperature yesterday: 70 °F (at 7:00 AM)
Average temperature yesterday: 81 °F

High & Low Weather Summary for the Past Weeks

 TemperatureHumidityPressure
High97 °F (Jan 31, 3:30 PM)100% (Feb 3, 7:30 AM)30.12 "Hg (Feb 3, 7:30 AM)
Low57 °F (Feb 6, 6:30 AM)17% (Feb 8, 3:00 PM)29.59 "Hg (Feb 12, 8:30 PM)
Average78 °F39%29.96 "Hg
* Reported Jan 30 5:30 PM — Feb 14 5:30 PM, Wardha, Weather by CustomWeather, © 2016

Note: Actual official high and low records may vary slightly from our data, if they occured in-between our weather recording intervals... More about our weather records

Advertising

Wardha Weather History for the Previous 24 Hours

 ConditionsComfort  
Time TempWeatherWind HumidityBarometerVisibility
5:30 PM
Sun, Feb 14
88 °FScattered clouds.5 mph33%29.92 "Hg2 mi
5:00 PM90 °FHaze.3 mph31%29.89 "Hg2 mi
4:30 PM90 °FHaze.2 mph31%29.89 "Hg2 mi
4:00 PM90 °FHaze.2 mph31%29.89 "Hg2 mi
3:00 PM90 °FHaze.3 mph29%29.92 "Hg2 mi
2:30 PM90 °FHaze.6 mph27%29.92 "Hg2 mi
1:30 PM88 °FHaze.6 mph25%29.95 "Hg2 mi
1:00 PM88 °FHaze.6 mph25%29.95 "Hg2 mi
12:30 PM88 °FHaze.8 mph25%29.98 "Hg2 mi
12:00 PM86 °FHaze.6 mph27%29.98 "Hg2 mi
11:30 AM84 °FHaze.5 mph27%30.01 "Hg2 mi
11:00 AM84 °FHaze.6 mph27%30.01 "Hg2 mi
10:30 AM81 °FHaze.7 mph30%30.04 "Hg2 mi
10:00 AM79 °FHaze.6 mph32%30.04 "Hg2 mi
9:00 AM77 °FScattered clouds.5 mph39%30.01 "Hg2 mi
8:30 AM73 °FScattered clouds.3 mph44%30.01 "Hg2 mi
8:00 AM70 °FScattered clouds.No wind53%30.01 "Hg1 mi
7:30 AM68 °FScattered clouds.No wind53%29.98 "Hg1 mi
7:00 AM66 °FPassing clouds.2 mph52%29.98 "Hg1 mi
6:30 AM66 °FPassing clouds.2 mph56%29.95 "Hg2 mi
6:00 AM64 °FHaze.2 mph60%29.95 "Hg2 mi
5:30 AM64 °FMild.N/A60%29.95 "HgN/A
3:30 AM68 °FHaze.No wind49%29.92 "Hg2 mi
3:00 AM72 °FHaze.3 mph44%29.92 "Hg2 mi
2:30 AM73 °FHaze.3 mph41%29.92 "Hg2 mi
2:00 AM73 °FHaze.3 mph44%29.92 "Hg2 mi
1:30 AM75 °FHaze.6 mph41%29.92 "Hg2 mi
1:00 AM77 °FHaze.6 mph39%29.92 "Hg2 mi
12:00 AM77 °FHaze.8 mph36%29.95 "Hg2 mi
11:30 PM
Sat, Feb 13
73 °FHaze.6 mph44%29.95 "Hg2 mi
10:30 PM77 °FHaze.5 mph39%29.95 "Hg2 mi
10:00 PM77 °FHaze.2 mph44%29.95 "Hg2 mi
9:30 PM77 °FHaze.3 mph44%29.95 "Hg2 mi
8:30 PM81 °FHaze.2 mph39%29.95 "Hg2 mi
8:00 PM81 °FHaze.2 mph39%29.92 "Hg2 mi
7:30 PM82 °FHaze.3 mph37%29.92 "Hg2 mi
7:00 PM82 °FHaze.3 mph35%29.92 "Hg2 mi
6:30 PM86 °FHaze.3 mph31%29.89 "Hg2 mi
6:00 PM90 °FHaze.No wind27%29.89 "Hg3 mi
Weather by CustomWeather, © 2016

See weather overviewHow to use our weather pages